Voltar ao catálogo

STARLINK-37627

AtivoComunicaçõesSSO
NORAD 69315·PAYLOAD·🇺🇸 United States

Lançado May 30, 2026 de Vandenberg Space Force Base

Loading…

Próximas Passagens (próximas 24 horas)

TLE

AtualizadoSource: CelesTrak SupGP

Época: Sep 14, 2026, 22:35 UTC

1 69315C 26119V   26257.94145833  .00044895  00000+0  13939-2 0  2575
2 69315  97.2831 282.8144 0001138  97.2192 314.0799 15.33411149    14

Acompanhe STARLINK-37627 em tempo real com AllMySat

Download on the App Store